,,PA_Meas_PMT16A,,PR_Meas_QMR101_102,,RH_Meas_QMH101,,SR_Meas_QMS101,,TA_Meas_QMH101,,GenWind,,GenWind,
time,status,PA,status,PR,status,RH,status,SR,status,TA,status,DirAvg,status,SpdAvg,
2010-07-13, 00:00:04,VALID,917.631,VALID,0,VALID,96.4896,VALID,0,VALID,20.5984,VALID,344,VALID,0.433594,
2010-07-13, 00:01:04,VALID,917.629,VALID,0,VALID,96.5124,VALID,0,VALID,20.6194,VALID,344,VALID,0.344141,
2010-07-13, 00:02:04,VALID,917.64,VALID,0,VALID,96.5277,VALID,0,VALID,20.5984,VALID,344,VALID,0.341406,
2010-07-13, 00:03:04,VALID,917.681,VALID,0,VALID,96.5506,VALID,0,VALID,20.6194,VALID,344,VALID,0.444531,
2010-07-13, 00:04:04,VALID,917.649,VALID,0,VALID,96.5582,VALID,0,VALID,20.6194,VALID,344,VALID,0.355078,
2010-07-13, 00:05:04,VALID,917.675,VALID,0,VALID,96.5582,VALID,0,VALID,20.639,VALID,344,VALID,0.364844,
2010-07-13, 00:06:04,VALID,917.656,VALID,0,VALID,96.5582,VALID,0,VALID,20.639,VALID,344,VALID,0.18125,
2010-07-13, 00:07:04,VALID,917.663,VALID,0,VALID,96.5658,VALID,0,VALID,20.6585,VALID,344,VALID,0.0476562,
2010-07-13, 00:08:04,VALID,917.587,VALID,0,VALID,96.5734,VALID,0,VALID,20.6585,VALID,344,VALID,0.398828,
2010-07-13, 00:09:04,VALID,917.587,VALID,0,VALID,96.5963,VALID,0,VALID,20.6585,VALID,344,VALID,0.00117188,
2010-07-13, 00:10:04,VALID,917.599,VALID,0,VALID,96.5582,VALID,0,VALID,20.639,VALID,344,VALID,0.115625,
2010-07-13, 00:11:04,VALID,917.531,VALID,0,VALID,96.5811,VALID,0,VALID,20.6179,VALID,344,VALID,0.0914062,
2010-07-13, 00:12:04,VALID,917.528,VALID,0,VALID,96.5811,VALID,0,VALID,20.639,VALID,344,VALID,0.0132813,
2010-07-13, 00:13:04,VALID,917.494,VALID,0,VALID,96.5582,VALID,0,VALID,20.639,VALID,344,VALID,0.341797,
2010-07-13, 00:14:04,VALID,917.487,VALID,0,VALID,96.5353,VALID,0,VALID,20.639,VALID,344,VALID,0.160156,
2010-07-13, 00:15:04,VALID,917.48,VALID,0,VALID,96.5201,VALID,0,VALID,20.6194,VALID,344,VALID,0.552734,
2010-07-13, 00:16:04,VALID,917.473,VALID,0,VALID,96.5201,VALID,0,VALID,20.6194,VALID,344,VALID,0.557031,
2010-07-13, 00:17:04,VALID,917.474,VALID,0,VALID,96.5353,VALID,0,VALID,20.6194,VALID,344,VALID,0.534375,
2010-07-13, 00:18:04,VALID,917.502,VALID,0,VALID,96.5124,VALID,0,VALID,20.6194,VALID,344,VALID,0.342187,
2010-07-13, 00:19:04,VALID,917.51,VALID,0,VALID,96.4896,VALID,0,VALID,20.5999,VALID,344,VALID,0.328906,
2010-07-13, 00:20:04,VALID,917.557,VALID,0,VALID,96.4438,VALID,0,VALID,20.5204,VALID,344,VALID,0.494141,
2010-07-13, 00:21:04,VALID,917.535,VALID,0,VALID,96.3295,VALID,0,VALID,20.5024,VALID,344,VALID,0.480859,
2010-07-13, 00:22:04,VALID,917.525,VALID,0,VALID,96.299,VALID,0,VALID,20.4634,VALID,344,VALID,0.761328,
2010-07-13, 00:23:04,VALID,917.537,VALID,0,VALID,96.2914,VALID,0,VALID,20.4244,VALID,344,VALID,0.879687,
2010-07-13, 00:24:05,VALID,917.58,VALID,0,VALID,96.3371,VALID,0,VALID,20.4049,VALID,344,VALID,1.06328,
2010-07-13, 00:25:05,VALID,917.566,VALID,0,VALID,96.4362,VALID,0,VALID,20.4244,VALID,344,VALID,1.13828,
2010-07-13, 00:26:05,VALID,917.57,VALID,0,VALID,96.4133,VALID,0,VALID,20.4244,VALID,344,VALID,0.91875,
2010-07-13, 00:27:05,VALID,917.532,VALID,0,VALID,96.4057,VALID,0,VALID,20.3643,VALID,344,VALID,0.932031,
2010-07-13, 00:28:05,VALID,917.529,VALID,0,VALID,96.4286,VALID,0,VALID,20.3854,VALID,344,VALID,0.823828,
2010-07-13, 00:29:05,VALID,917.526,VALID,0,VALID,96.4591,VALID,0,VALID,20.3659,VALID,344,VALID,0.704297,
2010-07-13, 00:30:05,VALID,917.472,VALID,0,VALID,96.4667,VALID,0,VALID,20.3659,VALID,344,VALID,0.751562,
2010-07-13, 00:31:05,VALID,917.474,VALID,0,VALID,96.4972,VALID,0,VALID,20.3253,VALID,344,VALID,0.602734,
2010-07-13, 00:32:05,VALID,917.449,VALID,0,VALID,96.5429,VALID,0,VALID,20.3464,VALID,344,VALID,0.440625,
2010-07-13, 00:33:05,VALID,917.435,VALID,0,VALID,96.5582,VALID,0,VALID,20.3253,VALID,344,VALID,0.466406,
2010-07-13, 00:34:05,VALID,917.435,VALID,0,VALID,96.5506,VALID,0,VALID,20.3058,VALID,344,VALID,0.505078,
2010-07-13, 00:35:05,VALID,917.412,VALID,0,VALID,96.5429,VALID,0,VALID,20.2879,VALID,344,VALID,0.647656,
2010-07-13, 00:36:05,VALID,917.418,VALID,0,VALID,96.6115,VALID,0,VALID,20.2863,VALID,344,VALID,0.432422,
2010-07-13, 00:37:05,VALID,917.387,VALID,0,VALID,96.6344,VALID,0,VALID,20.2863,VALID,344,VALID,0.197266,
2010-07-13, 00:38:05,VALID,917.378,VALID,0,VALID,96.6802,VALID,0,VALID,20.2879,VALID,344,VALID,0,
2010-07-13, 00:39:05,VALID,917.353,VALID,0,VALID,96.6802,VALID,0,VALID,20.2863,VALID,344,VALID,0,
2010-07-13, 00:40:05,VALID,917.36,VALID,0,VALID,96.7107,VALID,0,VALID,20.2863,VALID,344,VALID,0,
2010-07-13, 00:41:05,VALID,917.252,VALID,0,VALID,96.7259,VALID,0,VALID,20.3058,VALID,344,VALID,0,
2010-07-13, 00:42:05,VALID,917.283,VALID,0,VALID,96.7564,VALID,0,VALID,20.3269,VALID,344,VALID,0,
2010-07-13, 00:43:05,VALID,917.281,VALID,0,VALID,96.764,VALID,0,VALID,20.3269,VALID,344,VALID,0,
2010-07-13, 00:44:05,VALID,917.281,VALID,0,VALID,96.7335,VALID,0,VALID,20.2863,VALID,344,VALID,0,
2010-07-13, 00:45:05,VALID,917.274,VALID,0,VALID,96.7259,VALID,0.107441,VALID,20.2668,VALID,344,VALID,0,
2010-07-13, 00:46:05,VALID,917.275,VALID,0,VALID,96.7183,VALID,0,VALID,20.2473,VALID,344,VALID,0.0882813,
2010-07-13, 00:47:05,VALID,917.288,VALID,0,VALID,96.703,VALID,0,VALID,20.1873,VALID,344,VALID,0.05,
2010-07-13, 00:48:05,VALID,917.286,VALID,0,VALID,96.6649,VALID,0,VALID,20.1888,VALID,344,VALID,0.00195313,
2010-07-13, 00:49:05,VALID,917.305,VALID,0,VALID,96.6573,VALID,0,VALID,20.1288,VALID,344,VALID,0.182422,
2010-07-13, 00:50:05,VALID,917.329,VALID,0,VALID,96.6344,VALID,0,VALID,20.0913,VALID,344,VALID,0.772656,
2010-07-13, 00:51:05,VALID,917.328,VALID,0,VALID,96.7107,VALID,0.107441,VALID,20.1108,VALID,344,VALID,0.53125,
2010-07-13, 00:52:05,VALID,917.344,VALID,0,VALID,96.6878,VALID,0,VALID,20.0913,VALID,344,VALID,0.823438,
2010-07-13, 00:53:05,VALID,917.347,VALID,0,VALID,96.7183,VALID,0,VALID,20.0508,VALID,344,VALID,0.773047,
2010-07-13, 00:54:05,VALID,917.321,VALID,0,VALID,96.7488,VALID,0,VALID,20.0313,VALID,346,VALID,1.05508,
2010-07-13, 00:55:05,VALID,917.319,VALID,0,VALID,96.7793,VALID,0,VALID,20.0133,VALID,144,VALID,1.15625,
2010-07-13, 00:56:05,VALID,917.332,VALID,0,VALID,96.8326,VALID,0,VALID,20.0328,VALID,143,VALID,1.11367,
2010-07-13, 00:57:05,VALID,917.325,VALID,0,VALID,96.8403,VALID,0,VALID,20.0328,VALID,143,VALID,0.6375,
2010-07-13, 00:58:05,VALID,917.332,VALID,0,VALID,96.8784,VALID,0,VALID,20.0523,VALID,143,VALID,0.457812,
2010-07-13, 00:59:05,VALID,917.283,VALID,0,VALID,96.9165,VALID,0.107441,VALID,20.0703,VALID,143,VALID,0.482422,
2010-07-13, 01:00:05,VALID,917.291,VALID,0,VALID,96.9165,VALID,0,VALID,20.0703,VALID,143,VALID,0.632813,
2010-07-13, 01:01:05,VALID,917.272,VALID,0,VALID,96.9775,VALID,0,VALID,20.1303,VALID,143,VALID,0.810938,
2010-07-13, 01:02:05,VALID,917.252,VALID,0,VALID,97.008,VALID,0,VALID,20.1498,VALID,143,VALID,0.776953,
2010-07-13, 01:03:05,VALID,917.235,VALID,0,VALID,97.008,VALID,0,VALID,20.1693,VALID,143,VALID,0.4625,
2010-07-13, 01:04:05,VALID,917.248,VALID,0,VALID,97.0003,VALID,0,VALID,20.1888,VALID,144,VALID,0.627344,
2010-07-13, 01:05:05,VALID,917.229,VALID,0,VALID,97.0461,VALID,0,VALID,20.2083,VALID,143,VALID,0.321094,
2010-07-13, 01:06:05,VALID,917.211,VALID,0,VALID,97.0385,VALID,0.107441,VALID,20.2278,VALID,143,VALID,0.534766,
2010-07-13, 01:07:05,VALID,917.227,VALID,0,VALID,97.0003,VALID,0,VALID,20.1888,VALID,143,VALID,0.487109,
2010-07-13, 01:08:05,VALID,917.236,VALID,0,VALID,96.9775,VALID,0,VALID,20.1693,VALID,143,VALID,0.463672,
2010-07-13, 01:09:05,VALID,917.225,VALID,0,VALID,97.008,VALID,0.107441,VALID,20.1483,VALID,143,VALID,0.554297,
2010-07-13, 01:10:05,VALID,917.225,VALID,0,VALID,97.0385,VALID,0.107441,VALID,20.1888,VALID,143,VALID,0.538672,
2010-07-13, 01:11:05,VALID,917.213,VALID,0,VALID,97.0537,VALID,0,VALID,20.2083,VALID,143,VALID,0.421484,
2010-07-13, 01:12:05,VALID,917.165,VALID,0,VALID,97.0537,VALID,0,VALID,20.2083,VALID,143,VALID,0.466406,
2010-07-13, 01:13:05,VALID,917.17,VALID,0,VALID,97.0461,VALID,0,VALID,20.2278,VALID,143,VALID,0.530078,
2010-07-13, 01:14:05,VALID,917.137,VALID,0,VALID,97.069,VALID,0.107441,VALID,20.2278,VALID,143,VALID,0.622656,
2010-07-13, 01:15:05,VALID,917.156,VALID,0,VALID,97.0842,VALID,0,VALID,20.2668,VALID,143,VALID,0.655469,
2010-07-13, 01:16:05,VALID,917.083,VALID,0,VALID,97.0461,VALID,0.107441,VALID,20.2473,VALID,143,VALID,0.537891,
2010-07-13, 01:17:05,VALID,917.073,VALID,0,VALID,97.0842,VALID,0,VALID,20.2473,VALID,143,VALID,0.698828,
2010-07-13, 01:18:05,VALID,917.051,VALID,0,VALID,97.0842,VALID,0,VALID,20.2278,VALID,143,VALID,0.601563,
2010-07-13, 01:19:05,VALID,917.026,VALID,0,VALID,97.069,VALID,0.107441,VALID,20.2068,VALID,143,VALID,0.547656,
2010-07-13, 01:20:05,VALID,917.029,VALID,0,VALID,97.1071,VALID,0,VALID,20.2278,VALID,143,VALID,0.311719,
2010-07-13, 01:21:05,VALID,917.025,VALID,0,VALID,97.0918,VALID,0,VALID,20.2668,VALID,143,VALID,0.227344,
2010-07-13, 01:22:05,VALID,917.023,VALID,0,VALID,97.0994,VALID,0,VALID,20.2863,VALID,143,VALID,0.0777344,
2010-07-13, 01:23:05,VALID,917.037,VALID,0,VALID,97.0994,VALID,0,VALID,20.2848,VALID,143,VALID,0.237109,
2010-07-13, 01:24:05,VALID,917.063,VALID,0,VALID,97.1223,VALID,0.107441,VALID,20.3238,VALID,143,VALID,0.171484,
2010-07-13, 01:25:05,VALID,917.045,VALID,0,VALID,97.1071,VALID,0.107441,VALID,20.3643,VALID,143,VALID,0,
2010-07-13, 01:26:05,VALID,917.031,VALID,0,VALID,97.1376,VALID,0,VALID,20.3628,VALID,143,VALID,0,
2010-07-13, 01:27:05,VALID,917.013,VALID,0,VALID,97.1376,VALID,0.107441,VALID,20.4033,VALID,143,VALID,0,
2010-07-13, 01:28:05,VALID,917.02,VALID,0,VALID,97.1071,VALID,0,VALID,20.4033,VALID,143,VALID,0,
2010-07-13, 01:29:05,VALID,917.002,VALID,0,VALID,97.1299,VALID,0.107441,VALID,20.4018,VALID,143,VALID,0,
2010-07-13, 01:30:05,VALID,917.001,VALID,0,VALID,97.1299,VALID,0.107441,VALID,20.4423,VALID,143,VALID,0,
2010-07-13, 01:31:05,VALID,917.005,VALID,0,VALID,97.1071,VALID,0,VALID,20.4213,VALID,143,VALID,0.116797,
2010-07-13, 01:32:05,VALID,916.986,VALID,0,VALID,97.1376,VALID,0,VALID,20.4423,VALID,143,VALID,0,
2010-07-13, 01:33:05,VALID,916.948,VALID,0,VALID,97.1147,VALID,0.107441,VALID,20.4423,VALID,143,VALID,0,
2010-07-13, 01:34:05,VALID,916.978,VALID,0,VALID,97.1147,VALID,0,VALID,20.4423,VALID,143,VALID,0,
2010-07-13, 01:35:05,VALID,916.952,VALID,0,VALID,97.1223,VALID,0,VALID,20.4228,VALID,143,VALID,0.323438,
2010-07-13, 01:36:05,VALID,916.951,VALID,0,VALID,97.1299,VALID,0,VALID,20.4033,VALID,143,VALID,0.0976563,
2010-07-13, 01:37:05,VALID,916.951,VALID,0,VALID,97.1299,VALID,0,VALID,20.4228,VALID,143,VALID,0.0445312,
2010-07-13, 01:38:05,VALID,916.967,VALID,0,VALID,97.1376,VALID,0.107441,VALID,20.4228,VALID,143,VALID,0.132813,
2010-07-13, 01:39:05,VALID,916.914,VALID,0,VALID,97.1147,VALID,0,VALID,20.4228,VALID,143,VALID,0.130859,
2010-07-13, 01:40:05,VALID,916.951,VALID,0,VALID,97.1071,VALID,0,VALID,20.4018,VALID,143,VALID,0,
2010-07-13, 01:41:05,VALID,916.953,VALID,0,VALID,97.1071,VALID,0.107441,VALID,20.4018,VALID,143,VALID,0,
2010-07-13, 01:42:05,VALID,916.975,VALID,0,VALID,97.1147,VALID,0,VALID,20.4228,VALID,143,VALID,0,
2010-07-13, 01:43:05,VALID,916.97,VALID,0,VALID,97.1071,VALID,0,VALID,20.4018,VALID,143,VALID,0,
2010-07-13, 01:44:05,VALID,916.976,VALID,0,VALID,97.1147,VALID,0,VALID,20.4423,VALID,143,VALID,0,
2010-07-13, 01:45:05,VALID,916.938,VALID,0,VALID,97.1299,VALID,0.107441,VALID,20.4213,VALID,143,VALID,0.00898437,
2010-07-13, 01:46:05,VALID,916.938,VALID,0,VALID,97.1071,VALID,0,VALID,20.4228,VALID,143,VALID,0.415625,
2010-07-13, 01:47:05,VALID,916.93,VALID,0,VALID,97.0766,VALID,0,VALID,20.3628,VALID,143,VALID,0.583984,
2010-07-13, 01:48:05,VALID,916.92,VALID,0,VALID,97.069,VALID,0.107441,VALID,20.3058,VALID,143,VALID,0.542188,
2010-07-13, 01:49:05,VALID,916.925,VALID,0,VALID,97.0613,VALID,0,VALID,20.2668,VALID,143,VALID,0.482422,
2010-07-13, 01:50:05,VALID,916.928,VALID,0,VALID,97.0613,VALID,0.107441,VALID,20.2668,VALID,143,VALID,0.452344,
2010-07-13, 01:51:05,VALID,916.897,VALID,0,VALID,97.0842,VALID,0.107441,VALID,20.2668,VALID,143,VALID,0.365234,
2010-07-13, 01:52:05,VALID,916.912,VALID,0,VALID,97.069,VALID,0,VALID,20.2668,VALID,143,VALID,0.294922,
2010-07-13, 01:53:05,VALID,916.887,VALID,0,VALID,97.0918,VALID,0,VALID,20.2653,VALID,143,VALID,0.396875,
2010-07-13, 01:54:05,VALID,916.882,VALID,0,VALID,97.0918,VALID,0,VALID,20.3058,VALID,143,VALID,0.309375,
2010-07-13, 01:55:05,VALID,916.891,VALID,0,VALID,97.1071,VALID,0,VALID,20.2848,VALID,143,VALID,0.203125,
2010-07-13, 01:56:05,VALID,916.87,VALID,0,VALID,97.0842,VALID,0,VALID,20.2863,VALID,143,VALID,0.117188,
2010-07-13, 01:57:05,VALID,916.834,VALID,0,VALID,97.0842,VALID,0,VALID,20.2863,VALID,143,VALID,0,
2010-07-13, 01:58:05,VALID,916.807,VALID,0,VALID,97.0537,VALID,0,VALID,20.2668,VALID,143,VALID,0,
2010-07-13, 01:59:05,VALID,916.799,VALID,0,VALID,97.0613,VALID,0,VALID,20.2278,VALID,143,VALID,0,
2010-07-13, 02:00:05,VALID,916.767,VALID,0,VALID,97.0537,VALID,0,VALID,20.2083,VALID,143,VALID,0,
2010-07-13, 02:01:05,VALID,916.741,VALID,0,VALID,97.0613,VALID,0,VALID,20.2068,VALID,143,VALID,0.392578,
2010-07-13, 02:02:05,VALID,916.761,VALID,0,VALID,97.069,VALID,0,VALID,20.2278,VALID,143,VALID,0.648047,
2010-07-13, 02:03:05,VALID,916.792,VALID,0,VALID,97.0766,VALID,0,VALID,20.2083,VALID,143,VALID,0.741406,
2010-07-13, 02:04:05,VALID,916.83,VALID,0,VALID,97.0918,VALID,0,VALID,20.2083,VALID,143,VALID,0.587891,
2010-07-13, 02:05:05,VALID,916.838,VALID,0,VALID,97.0918,VALID,0,VALID,20.2083,VALID,143,VALID,0.620703,
2010-07-13, 02:06:05,VALID,916.84,VALID,0,VALID,97.0918,VALID,0.107441,VALID,20.1678,VALID,143,VALID,0.5125,
2010-07-13, 02:07:05,VALID,916.854,VALID,0,VALID,97.0842,VALID,0,VALID,20.1693,VALID,143,VALID,0.531641,
2010-07-13, 02:08:05,VALID,916.851,VALID,0,VALID,97.0766,VALID,0,VALID,20.1693,VALID,143,VALID,0.216406,
2010-07-13, 02:09:05,VALID,916.822,VALID,0,VALID,97.0766,VALID,0,VALID,20.1498,VALID,143,VALID,0.617188,
2010-07-13, 02:10:05,VALID,916.856,VALID,0,VALID,97.0994,VALID,0,VALID,20.1498,VALID,143,VALID,0.891797,
2010-07-13, 02:11:05,VALID,916.857,VALID,0,VALID,97.0918,VALID,0,VALID,20.1303,VALID,143,VALID,0.547266,
2010-07-13, 02:12:05,VALID,916.832,VALID,0,VALID,97.0918,VALID,0.107441,VALID,20.1288,VALID,143,VALID,0.582031,
2010-07-13, 02:13:05,VALID,916.836,VALID,0,VALID,97.0918,VALID,0.107441,VALID,20.1498,VALID,143,VALID,0.853125,
2010-07-13, 02:14:05,VALID,916.801,VALID,0,VALID,97.1071,VALID,0,VALID,20.1303,VALID,143,VALID,0.564453,
2010-07-13, 02:15:05,VALID,916.804,VALID,0,VALID,97.1147,VALID,0.107441,VALID,20.1108,VALID,143,VALID,0.464453,
2010-07-13, 02:16:05,VALID,916.838,VALID,0,VALID,97.0918,VALID,0,VALID,20.1123,VALID,143,VALID,0.501172,
2010-07-13, 02:17:05,VALID,916.799,VALID,0,VALID,97.0994,VALID,0,VALID,20.1303,VALID,116,VALID,0.648438,
2010-07-13, 02:18:05,VALID,916.809,VALID,0,VALID,97.1299,VALID,0,VALID,20.1318,VALID,116,VALID,0.773828,
2010-07-13, 02:19:05,VALID,916.802,VALID,0,VALID,97.1147,VALID,0,VALID,20.1513,VALID,116,VALID,0.660156,
2010-07-13, 02:20:05,VALID,916.791,VALID,0,VALID,97.1223,VALID,0,VALID,20.1708,VALID,116,VALID,0.533594,
2010-07-13, 02:21:05,VALID,916.788,VALID,0,VALID,97.1147,VALID,0,VALID,20.1693,VALID,116,VALID,0.00195313,
2010-07-13, 02:22:05,VALID,916.788,VALID,0,VALID,97.1452,VALID,0,VALID,20.1888,VALID,116,VALID,0.421094,
2010-07-13, 02:23:05,VALID,916.752,VALID,0,VALID,97.1376,VALID,0,VALID,20.2293,VALID,116,VALID,0.264844,
2010-07-13, 02:24:05,VALID,916.744,VALID,0,VALID,97.1299,VALID,0,VALID,20.2293,VALID,116,VALID,0.291797,
2010-07-13, 02:25:05,VALID,916.765,VALID,0,VALID,97.1452,VALID,0,VALID,20.2293,VALID,116,VALID,0.596094,
2010-07-13, 02:26:05,VALID,916.743,VALID,0,VALID,97.1528,VALID,0,VALID,20.2293,VALID,116,VALID,0.485938,
2010-07-13, 02:27:05,VALID,916.78,VALID,0,VALID,97.1528,VALID,0,VALID,20.2293,VALID,116,VALID,0.692578,
2010-07-13, 02:28:05,VALID,916.772,VALID,0,VALID,97.1452,VALID,0,VALID,20.2293,VALID,116,VALID,0.709766,
2010-07-13, 02:29:05,VALID,916.78,VALID,0,VALID,97.1452,VALID,0,VALID,20.2489,VALID,116,VALID,0.396875,
2010-07-13, 02:30:05,VALID,916.794,VALID,0,VALID,97.1604,VALID,0,VALID,20.2473,VALID,116,VALID,0.448047,
2010-07-13, 02:31:05,VALID,916.798,VALID,0,VALID,97.1528,VALID,0,VALID,20.2684,VALID,116,VALID,0.466406,
2010-07-13, 02:32:05,VALID,916.798,VALID,0,VALID,97.1604,VALID,0,VALID,20.2879,VALID,116,VALID,0.539453,
2010-07-13, 02:33:05,VALID,916.796,VALID,0,VALID,97.1452,VALID,0,VALID,20.3074,VALID,116,VALID,0.828906,
2010-07-13, 02:34:05,VALID,916.785,VALID,0,VALID,97.1757,VALID,0,VALID,20.3269,VALID,116,VALID,0.671484,
2010-07-13, 02:35:05,VALID,916.782,VALID,0,VALID,97.1681,VALID,0,VALID,20.3269,VALID,116,VALID,0.534375,
2010-07-13, 02:36:05,VALID,916.807,VALID,0,VALID,97.1757,VALID,0,VALID,20.3058,VALID,116,VALID,0.393359,
2010-07-13, 02:37:05,VALID,916.764,VALID,0,VALID,97.1604,VALID,0,VALID,20.3058,VALID,146,VALID,0.779688,
2010-07-13, 02:38:05,VALID,916.742,VALID,0,VALID,97.1681,VALID,0,VALID,20.3464,VALID,146,VALID,0.575391,
2010-07-13, 02:39:05,VALID,916.749,VALID,0,VALID,97.1681,VALID,0,VALID,20.3269,VALID,146,VALID,0.921875,
2010-07-13, 02:40:05,VALID,916.762,VALID,0,VALID,97.1604,VALID,0,VALID,20.3269,VALID,146,VALID,0.435937,
2010-07-13, 02:41:05,VALID,916.741,VALID,0,VALID,97.1757,VALID,0,VALID,20.3058,VALID,146,VALID,0.804688,
2010-07-13, 02:42:05,VALID,916.722,VALID,0,VALID,97.1604,VALID,0,VALID,20.3269,VALID,146,VALID,0.735547,
2010-07-13, 02:43:05,VALID,916.721,VALID,0,VALID,97.1833,VALID,0,VALID,20.3464,VALID,172,VALID,0.721484,
2010-07-13, 02:44:05,VALID,916.73,VALID,0,VALID,97.1604,VALID,0,VALID,20.3464,VALID,134,VALID,1.02344,
2010-07-13, 02:45:05,VALID,916.724,VALID,0,VALID,97.1757,VALID,0,VALID,20.3269,VALID,144,VALID,0.660937,
2010-07-13, 02:46:05,VALID,916.727,VALID,0,VALID,97.1757,VALID,0,VALID,20.3448,VALID,144,VALID,1.12305,
2010-07-13, 02:47:05,VALID,916.681,VALID,0,VALID,97.1757,VALID,0,VALID,20.3448,VALID,144,VALID,0.344922,
2010-07-13, 02:48:05,VALID,916.667,VALID,0,VALID,97.1909,VALID,0,VALID,20.3238,VALID,144,VALID,0.533203,
2010-07-13, 02:49:05,VALID,916.659,VALID,0,VALID,97.1833,VALID,0.107441,VALID,20.3253,VALID,143,VALID,1.03359,
2010-07-13, 02:50:05,VALID,916.594,VALID,0,VALID,97.1909,VALID,0,VALID,20.3043,VALID,142,VALID,1.02266,
2010-07-13, 02:51:05,VALID,916.582,VALID,0,VALID,97.1833,VALID,0.107441,VALID,20.3253,VALID,139,VALID,0.778516,
2010-07-13, 02:52:05,VALID,916.519,VALID,0,VALID,97.1757,VALID,0,VALID,20.3448,VALID,139,VALID,0.485938,
2010-07-13, 02:53:05,VALID,916.527,VALID,0,VALID,97.1833,VALID,0,VALID,20.3253,VALID,139,VALID,0.535547,
2010-07-13, 02:54:05,VALID,916.488,VALID,0,VALID,97.1833,VALID,0,VALID,20.3253,VALID,139,VALID,1.18594,
2010-07-13, 02:55:05,VALID,916.45,VALID,0,VALID,97.2062,VALID,0,VALID,20.3253,VALID,139,VALID,0.654297,
2010-07-13, 02:56:05,VALID,916.482,VALID,0,VALID,97.1986,VALID,0,VALID,20.3253,VALID,139,VALID,0.397266,
2010-07-13, 02:57:05,VALID,916.427,VALID,0,VALID,97.1909,VALID,0,VALID,20.3253,VALID,139,VALID,0.5875,
2010-07-13, 02:58:05,VALID,916.455,VALID,0,VALID,97.1757,VALID,0,VALID,20.3253,VALID,139,VALID,0.842969,
2010-07-13, 02:59:05,VALID,916.438,VALID,0,VALID,97.1986,VALID,0,VALID,20.3058,VALID,139,VALID,0.670703,
2010-07-13, 03:00:05,VALID,916.459,VALID,0,VALID,97.1986,VALID,0.107441,VALID,20.2668,VALID,139,VALID,0.699609,
2010-07-13, 03:01:05,VALID,916.461,VALID,0,VALID,97.1833,VALID,0,VALID,20.2473,VALID,139,VALID,0.764844,
2010-07-13, 03:02:05,VALID,916.42,VALID,0,VALID,97.1909,VALID,0,VALID,20.2473,VALID,139,VALID,1.07227,
2010-07-13, 03:03:05,VALID,916.42,VALID,0,VALID,97.1833,VALID,0,VALID,20.2473,VALID,139,VALID,0.640234,
2010-07-13, 03:04:05,VALID,916.399,VALID,0,VALID,97.1909,VALID,0.107441,VALID,20.2083,VALID,139,VALID,0.731641,
2010-07-13, 03:05:05,VALID,916.416,VALID,0,VALID,97.1833,VALID,0,VALID,20.2083,VALID,139,VALID,0.629687,
2010-07-13, 03:06:05,VALID,916.383,VALID,0,VALID,97.2138,VALID,0,VALID,20.2083,VALID,139,VALID,0.626953,
2010-07-13, 03:07:05,VALID,916.425,VALID,0,VALID,97.1909,VALID,0.107441,VALID,20.1888,VALID,139,VALID,0.509375,
2010-07-13, 03:08:05,VALID,916.413,VALID,0,VALID,97.2062,VALID,0,VALID,20.1693,VALID,139,VALID,0.481641,
2010-07-13, 03:09:05,VALID,916.44,VALID,0,VALID,97.1757,VALID,0,VALID,20.1693,VALID,139,VALID,0.419141,
2010-07-13, 03:10:04,VALID,916.405,VALID,0,VALID,97.1833,VALID,0,VALID,20.1693,VALID,139,VALID,0.00195313,
2010-07-13, 03:11:04,VALID,916.409,VALID,0,VALID,97.1986,VALID,0.107441,VALID,20.1693,VALID,139,VALID,0.1875,
2010-07-13, 03:12:04,VALID,916.402,VALID,0,VALID,97.2138,VALID,0,VALID,20.2083,VALID,139,VALID,0.45625,
2010-07-13, 03:13:04,VALID,916.39,VALID,0,VALID,97.2367,VALID,0,VALID,20.2278,VALID,139,VALID,0.366406,
2010-07-13, 03:14:04,VALID,916.391,VALID,0,VALID,97.1986,VALID,0,VALID,20.2473,VALID,139,VALID,0.401953,
2010-07-13, 03:15:04,VALID,916.402,VALID,0,VALID,97.2062,VALID,0.107441,VALID,20.2668,VALID,139,VALID,0.31875,
2010-07-13, 03:16:04,VALID,916.415,VALID,0,VALID,97.2138,VALID,0,VALID,20.2473,VALID,139,VALID,0.361719,
2010-07-13, 03:17:04,VALID,916.428,VALID,0,VALID,97.2062,VALID,0,VALID,20.2684,VALID,139,VALID,0.171875,
2010-07-13, 03:18:04,VALID,916.412,VALID,0,VALID,97.2062,VALID,0,VALID,20.2278,VALID,139,VALID,0.15,
2010-07-13, 03:19:04,VALID,916.394,VALID,0,VALID,97.2138,VALID,0,VALID,20.2278,VALID,139,VALID,0.320703,
2010-07-13, 03:20:04,VALID,916.392,VALID,0,VALID,97.1909,VALID,0,VALID,20.2473,VALID,139,VALID,0.339453,
2010-07-13, 03:21:04,VALID,916.374,VALID,0,VALID,97.1833,VALID,0,VALID,20.2473,VALID,139,VALID,0.274219,
2010-07-13, 03:22:04,VALID,916.366,VALID,0,VALID,97.1909,VALID,0,VALID,20.2473,VALID,139,VALID,0.357422,
2010-07-13, 03:23:04,VALID,916.33,VALID,0,VALID,97.1986,VALID,0,VALID,20.2263,VALID,139,VALID,0.414453,
2010-07-13, 03:24:04,VALID,916.299,VALID,0,VALID,97.1909,VALID,0,VALID,20.2068,VALID,139,VALID,0.424609,
2010-07-13, 03:25:04,VALID,916.257,VALID,0,VALID,97.1909,VALID,0,VALID,20.2473,VALID,139,VALID,0.536719,
2010-07-13, 03:26:04,VALID,916.25,VALID,0,VALID,97.1909,VALID,0,VALID,20.2263,VALID,139,VALID,0.900781,
2010-07-13, 03:27:04,VALID,916.244,VALID,0,VALID,97.1986,VALID,0,VALID,20.2473,VALID,138,VALID,0.649219,
2010-07-13, 03:28:04,VALID,916.233,VALID,0,VALID,97.1833,VALID,0,VALID,20.2668,VALID,137,VALID,0.344141,
2010-07-13, 03:29:04,VALID,916.195,VALID,0,VALID,97.1986,VALID,0,VALID,20.2863,VALID,137,VALID,0.475391,
2010-07-13, 03:30:04,VALID,916.168,VALID,0,VALID,97.1833,VALID,0,VALID,20.2863,VALID,137,VALID,0.532812,
2010-07-13, 03:31:04,VALID,916.199,VALID,0,VALID,97.1833,VALID,0,VALID,20.2863,VALID,137,VALID,0.521484,
2010-07-13, 03:32:04,VALID,916.167,VALID,0,VALID,97.1757,VALID,0,VALID,20.2863,VALID,137,VALID,0.307422,
2010-07-13, 03:33:04,VALID,916.138,VALID,0,VALID,97.1909,VALID,0,VALID,20.2863,VALID,137,VALID,0.257422,
2010-07-13, 03:34:04,VALID,916.121,VALID,0,VALID,97.1909,VALID,0,VALID,20.3058,VALID,137,VALID,0.182031,
2010-07-13, 03:35:04,VALID,916.074,VALID,0,VALID,97.1681,VALID,0.107441,VALID,20.3058,VALID,137,VALID,0,
2010-07-13, 03:36:04,VALID,916.062,VALID,0,VALID,97.1604,VALID,0,VALID,20.3058,VALID,137,VALID,0,
2010-07-13, 03:37:04,VALID,916.059,VALID,0,VALID,97.1681,VALID,0,VALID,20.3058,VALID,137,VALID,0,
2010-07-13, 03:38:04,VALID,916.005,VALID,0,VALID,97.1376,VALID,0,VALID,20.3058,VALID,137,VALID,0,
2010-07-13, 03:39:04,VALID,915.979,VALID,0,VALID,97.1452,VALID,0,VALID,20.3448,VALID,137,VALID,0.184766,
2010-07-13, 03:40:04,VALID,915.99,VALID,0,VALID,97.1376,VALID,0,VALID,20.2863,VALID,137,VALID,0.786719,
2010-07-13, 03:41:04,VALID,915.924,VALID,0,VALID,97.1147,VALID,0,VALID,20.2668,VALID,137,VALID,0.973828,
2010-07-13, 03:42:04,VALID,915.884,VALID,0,VALID,97.0994,VALID,0,VALID,20.2473,VALID,137,VALID,0.9625,
2010-07-13, 03:43:04,VALID,915.848,VALID,0,VALID,97.0994,VALID,0,VALID,20.2489,VALID,137,VALID,0.816016,
2010-07-13, 03:44:04,VALID,915.839,VALID,0,VALID,97.0766,VALID,0,VALID,20.2278,VALID,137,VALID,0.630078,